Location: Usti nad Labem
(50.6670°N, 14.0330°E)
Time: 10:29:12
(UTC+01:00)

X-37B - Visible Passes

Search period start: 01 December 2020 00:00
Search period end: 11 December 2020 00:00
Orbit: 384 x 390 km, 45.0° (Epoch: 26 November)

Date Brightness Start Highest point End Pass type
(mag) Time Alt. Az. Time Alt. Az. Time Alt. Az.
01 Dec 3.1 16:52:26 10° S 16:54:14 14° SSE 16:56:01 10° ESE visible
01 Dec 2.5 18:27:28 10° SW 18:29:28 24° SSW 18:29:28 24° SSW visible
02 Dec 2.3 17:29:12 10° SW 17:31:50 24° SSE 17:33:31 16° SE visible
02 Dec 3.7 19:05:11 10° WSW 19:05:47 14° WSW 19:05:47 14° WSW visible
03 Dec 2.0 18:06:44 10° WSW 18:09:33 29° S 18:09:50 29° SSE visible
04 Dec 2.2 17:08:22 10° SW 17:11:08 27° S 17:13:54 10° ESE visible
04 Dec 3.0 18:44:37 10° WSW 18:46:11 20° SW 18:46:11 20° SW visible
05 Dec 2.2 17:46:05 10° WSW 17:48:52 28° S 17:50:19 20° SE visible
06 Dec 2.3 16:47:38 10° WSW 16:50:27 29° S 16:53:16 10° ESE visible
06 Dec 2.8 18:24:08 10° WSW 18:26:34 20° SSW 18:26:47 20° S visible
07 Dec 2.6 17:25:31 10° WSW 17:28:10 25° SSW 17:30:51 10° SE visible
08 Dec 3.4 18:03:52 10° WSW 18:05:48 15° SSW 18:07:43 10° SSE visible
09 Dec 3.1 17:05:03 10° WSW 17:07:28 20° SSW 17:09:52 10° SSE visible
10 Dec 3.9 17:44:20 10° SW 17:44:59 10° SSW 17:45:38 10° SSW visible
